Погода в Ряжске

Погода в Ряжске : погода сейчас, прогноз погоды и архив. Всё, что Вы хотите узнать о погоде в Ряжске!

Хотите узнать прогноз погоды в Ряжске? Тогда Вам сюда: Погода в Ряжске

Поиск расширенной информации на нашем сайте:

Другие новости

Новости СМИ2

Главная страница сайта

Новости сайта

03.07.2017

Напоминаем, что на нашем специализированном сайте Метеоцентр.Азия вы можете получить высокодетализированные автоматические прогнозы погоды по пунктам России, СНГ и мира в авиационном формате (включающие направление и скорость ветра, видимость, явления погоды, количество и форму облачности, нижнюю и верхнюю границу облачности).


Погода в Ряжске - сегодня

Время (UTC), дата Ветер
(°,м/с) 
Видим.   Явления Облачность Т
(°С)
Тd
(°С)
f(%) Тe
(°С)
Pmin
(гПа)
dP
(гПа)
Po
(мм)
O2
(г/м3)
Тmin Tmax R s Состояние
почвы
21 15.06.18 тихо ()   н/о    1/0 верхняя 
[Ci sp]
+6.5 +4.8 89 +7  1020  0.9  753  296           
03 16.06.18 тихо ()   10 км    8/0 верхняя 
[Ci fib]
+11.4 +6.3 71 +11  1020.9  0.8  754  291  +3.9        сухая 
06 16.06.18 080 (В) 10 км    8/0 верхняя 
[Ci fib]
+17.4 +3.1 38 +18  1021.1  0.5  755  285           
09 16.06.18 070 (В) 10 км    6/5 1000 м верхняя 
[Cu hum|Ci fib]
+20.9 +4.4 34 +21  1020.4  -0.5  754  282           
12 16.06.18 050 (СВ) 10 км    6/5 1000 м верхняя 
[Cu hum|Ci fib]
+21.8 +5 33 +22  1019.7  -0.7  754  280           
18 16.06.18 тихо ()   10 км    ясно 
+14.9 +8.6 66 +15  1019.4  0.2  753  286           
21 16.06.18 тихо ()   н/о    ясно 
+9.6 +7.7 88 +10  1020  0.3  753  292           
00 17.06.18 тихо ()   4000 м  дымка  ясно 
+6.8 +6.1 95 +7  1020.4  0.3  754  295           
03 17.06.18 350 (С) 10 км    ясно 
+12.1 +8.3 78 +13  1020.4  0.2  754  289  +6.4         
06 17.06.18 010 (С) 10 км    ясно 
+20.8 +10.3 51 +22  1019.7  -0.2  754  280           
09 17.06.18 010 (С) 20000 м    9/9 1000 м 
[Cu hum]
+23.2 +5.1 31 +23  1019  -0.6  753  279           
12 17.06.18 090 (В) 20000 м    1/1 1000 м 
[Cu hum]
+24.7 +5 28 +25  1017.7  -1.2  752  277           
15 17.06.18 040 (СВ) 20000 м    ясно 
+24.4 +4.5 28 +24  1016.9  -0.8  752  277    +24.9       
18 17.06.18 тихо ()   10 км    ясно 
+16.4 +8.9 61 +16  1017.2  -0.1  752  284           
21 17.06.18 тихо ()   н/о    ясно 
+10.8 +8 83 +11  1017.8  0.3  752  290           
03 18.06.18 350 (С) 10 км    3/0 верхняя 
[Ci sp]
+13 +8.9 76 +14  1017.7  -0.1  752  288  +8.6         
06 18.06.18 350 (С) 10 км    3/0 верхняя 
[Ci sp]
+22.8 +8.9 41 +23  1016.6  -0.5  751  278           
09 18.06.18 330 (СЗ) 10 км    8/5 1000 м верхняя 
[Cu hum|Ci sp]
+26.1 +7.5 31 +26  1016  -0.5  751  275           
12 18.06.18 360 (С) 10 км    8/5 1000 м верхняя 
[Cu hum|Ci fib]
+27.4 +7.9 29 +27  1014.9  -1  750  273           
18 18.06.18 тихо ()   10 км    ясно 
+19.3 +12.2 63 +24  1014.3  -0.1  750  280           
21 18.06.18 тихо ()   н/о    3/0 средняя 
[Ac trans]
+14.3 +11.6 84 +18  1014.9  0.4  750  285           
00 19.06.18 тихо ()   4000 м  дымка  ясно 
+11.8 +11 95 +14  1015.1  750  288           
03 19.06.18 тихо ()   10 км    3/0 средняя 
[Ac trans]
+14.7 +12 84 +19  1015.3  0.4  750  285  +11         
06 19.06.18 190 (Ю) 10 км    1/0 верхняя 
[Ci sp]
+25 +12.6 46 +30  1014.2  -0.6  750  274           
09 19.06.18 260 (З) 10 км    8/3 1000 м верхняя 
[Cu hum|Ci sp]
+27.4 +7.6 29 +27  1013.2  -0.8  749  273           
Время (UTC), дата Ветер
(°,м/с) 
Видим.   Явления Облачность Т
(°С)
Тd
(°С)
f(%) Тe
(°С)
Pmin
(гПа)
dP
(гПа)
Po
(мм)
O2
(г/м3)
Тmin Tmax R s Состояние
почвы

Для получения пояснительной информации подведите курсор к названию столбца.

ПОГОДА в Ряжске - архив

Всё, что Вы хотите узнать о погоде в Ряжске - удобно и подробно!

Выберите нужную дату (начиная с 1 января 2015* года) и нажмите кнопку "Найти".
Будут отображены архивные сводки погоды по пункту Ряжск, начиная с указанной даты.


Отображать данные в формате CSV (для использования в таблицах Excel)


Внимание! Наш архив погоды предназначен исключительно для личного некоммерческого использования в познавательных целях. Если Вам необходимы официальные справки о состоянии погоды (для производственных, юридических, коммерческих и т.п. целей), обращайтесь в органы Росгидромета.

*Примечание: данная дата относится к архиву по метеостанциям СССР (Россия, СНГ, Балтия).
Архив по метеостанциям Зарубежной Европы и Азии (кроме Китая) хранится 10 дней, по другим регионам земного шара (Китай, Африка, Америка, Австралия, Океания) - 1 день.

Ряжск - район местоположения метеостанции


Название, широта, долгота, высота метеостанции:
Ряжск 53.7°ш. 40.1°д. 127 м над ур. моря [Российская Федерация]

Дополнительная информация

В oтличие oт бoльшинства пoгoдных сайтoв мы публикуем пoдрoбную метеoинфoрмацию в детальнoм прoфессиoнальнoм фoрмате.

Характеристики температуры и влажнoсти вoздуха измеряются на высoте 2 м в тени вдали oт зданий и деревьев.
Скoрoсть ветра измеряется на высoте 10 м (на урoвне рoста челoвека скoрoсть ветра ниже в 1.5-2 раза). Если метеoстанция нахoдится в гoрoде или в лесу, тo скoрoсть ветра занижена на 2-4 м/с пo сравнению с oткрытым местoм. Скoрoсть ветра над акватoриями крупных рек и oзёр, а также на вершинах хoлмoв на 2-5 м/с выше, чем в oбычных услoвиях.
Атмoсфернoе давление в разных тoчках местнoсти мoжет значительнo oтличаться oт давления на метеoстанции, в зависимoсти oт услoвий рельефа (при пoдъёме на 10 м давление пoнижается примернo на 1 мм рт.ст.).